Regional Weather Roundup
Issued by NWS

Home | Current Version | Previous Version | Graphics & Text | Print | Product List | Glossary On
Versions: 1 2 3 4 5 6 7 8 9 10 11 12 13 14 15 16 17 18 19 20 21 22 23 24 25 26 27 28 29 30 31 32 33 34 35 36 37 38 39 40 41 42 43 44 45 46 47 48 49 50
000
ASUS43 KLOT 060512
RWRIL

ILLINOIS REGIONAL WEATHER ROUNDUP
NATIONAL WEATHER SERVICE CHICAGO/ROMEOVILLE IL
1200 AM CDT WED MAY 06 2015

NOTE: "FAIR" INDICATES FEW OR NO CLOUDS BELOW 12,000 FEET WITH NO
SIGNIFICANT WEATHER AND/OR OBSTRUCTIONS TO VISIBILITY.

* THESE STATIONS ARE NOT UNDER NWS QUALITY CONTROL. THEY ALSO MAY NOT
  REPORT WEATHER SUCH AS PRECIPITATION OR FOG.

ILZ001-002-007-009-015-016-024-060600-
NORTHWEST ILLINOIS

CITY           SKY/WX    TMP DP  RH WIND       PRES   REMARKS
MOLINE         MOCLDY    59  55  87 E10       30.16R FOG
STERLING*      CLOUDY    54  50  87 E12       30.18S
SAVANNA*       CLOUDY    55  52  90 E7        30.19S FOG
$$

ILZ003-004-008-010-011-017-018-060600-
NORTH CENTRAL ILLINOIS

CITY           SKY/WX    TMP DP  RH WIND       PRES   REMARKS
ROCKFORD       CLOUDY    52  49  89 E6        30.22S FOG
FREEPORT*      CLOUDY    51  50  97 E7        30.21S FOG
ROCHELLE*      CLOUDY    52  51  98 E6        30.19S FOG
DE KALB*       FOG       50  49  97 E8        30.20S VSB 1/2
PERU*          CLOUDY    55  54  94 E8        30.18S FOG
$$

ILZ005-006-012>014-019>023-060600-
NORTHEAST ILLINOIS

CITY           SKY/WX    TMP DP  RH WIND       PRES   REMARKS
CHICAGO-OHARE  FOG       47  46  97 NE8       30.20F VSB 1
CHICAGO-MIDWAY CLOUDY    51  48  89 N8        30.20F FOG
AURORA         FOG       53  51  93 NE8       30.19S VSB 1/2
LANSING*       FOG       48  47  93 NE3       30.21S VSB 3/4
JOLIET*        MOCLDY    55  53  94 NE5       30.19S FOG
WAUKEGAN       CLOUDY    45  43  93 NE8       30.22F
DUPAGE AIRPORT FOG       50  49  96 NE10      30.19F VSB 1/2
KANKAKEE*      CLOUDY    58  57  97 NE3       30.19S FOG
WHEELING       CLOUDY    46  45  96 NE5       30.23F FOG
MORRIS*        MOCLDY    55  53  94 E6        30.17R FOG
ROMEOVILLE*    PTCLDY    52  50  95 NE8       30.19S FOG
NORTHERLY ISL    N/A     46  45  96 MISG        N/A
$$

LMZ740>746-060600-
SOUTHERN LAKE MICHIGAN

STATION/POSITION SKY/WX   TEMP    WIND        PRES    VSBY  WAVE
                          AIR SEA DIR/SP/G                  HT/PER
                          (F)     (DEG/KT/KT) (MB)    (MI)  (FT/S)
HARRISON CRIB              44     360/ 10/ 11   N/A
BURNHAM HARBOR             46     350/  6/ 11   N/A
CALUMET HARBOR             46     340/  6/  8   N/A
BURNS HARBOR               50     280/  2/  3 1023.0F
MICHIGAN CITY              56      70/  6/  8   N/A
MICHIGAN CITY 6N           51 50   70/  4/  6   N/A           1/ 3
ST. JOSEPH                 53 50  140/  4/  6   N/A           1/ 2
$$

ILZ025>027-034>036-040-047-049-050-058-095>099-060600-
WEST-CENTRAL ILLINOIS

CITY           SKY/WX    TMP DP  RH WIND       PRES   REMARKS
QUINCY         MOCLDY    71  56  58 SE7       30.11S
GALESBURG*     MOCLDY    63  61  94 E7        30.14S FOG
MACOMB*        MOCLDY    65  64  96 E5        30.15S FOG
JACKSONVILLE*  CLEAR     73  56  55 S7        30.13S
PITTSFIELD*    PTCLDY    69  57  64 S5        30.13S
$$

ILZ028>032-037-038-041>044-048-051>054-059>061-060600-
CENTRAL ILLINOIS

CITY           SKY/WX    TMP DP  RH WIND       PRES   REMARKS
PONTIAC        MOCLDY    59  58  97 E7        30.18F FOG
BLOOMINGTON    CLOUDY    61  61 100 E7        30.18S FOG
DECATUR        PTCLDY    70  55  59 CALM      30.16S
PEORIA         CLEAR     65  60  84 E9        30.14F HAZE
LACON*         PTCLDY    57  55  94 CALM      30.16S FOG
LINCOLN*       CLEAR     65  61  88 E3        30.13S
SPRINGFIELD    CLEAR     68  54  60 S7        30.14S
TAYLORVILLE    CLEAR     64  55  72 S6        30.15S
$$

ILZ033-039-045-046-055>057-062-063-060600-
EAST-CENTRAL ILLINOIS

CITY           SKY/WX    TMP DP  RH WIND       PRES   REMARKS
CHAMPAIGN      CLEAR     65  59  81 E3        30.17R
DANVILLE*      CLEAR     63  59  88 CALM      30.15S
RANTOUL*       CLEAR     65  61  87 NE6       30.16S
MATTOON        PTCLDY    68  55  63 S5        30.16S
PARIS*         PTCLDY    64  55  73 S6        30.17S
$$

ILZ079-100>102-060600-
SOUTHWEST ILLINOIS

CITY           SKY/WX    TMP DP  RH WIND       PRES   REMARKS
ALTON          CLEAR     67  59  75 CALM      30.15R
BELLEVILLE     CLEAR     65  61  87 CALM      30.14
CAHOKIA*       CLEAR     69  58  67 S3        30.14R
SPARTA*        MOCLDY    65  60  85 SE3       30.17R
$$

ILZ064>066-069>071-074>076-080>082-084>086-088>090-092>094-060600-
SOUTH-CENTRAL ILLINOIS

CITY           SKY/WX    TMP DP  RH WIND       PRES   REMARKS
CARBONDALE     MOCLDY    68  59  73 SE3       30.16S
CAIRO*         CLEAR     62  57  82 CALM      30.17S
EFFINGHAM*     CLEAR     65  54  65 CALM      30.18S
MARION         MOCLDY    70  59  68 CALM      30.17S
MT. VERNON     CLOUDY   N/A N/A N/A CALM      30.17S
CENTRALIA*     PTCLDY    62  57  85 SE3       30.16S
SALEM*         MOCLDY    70  58  66 SE5       30.17S
METROPOLIS*    CLEAR     62  58  87 CALM      30.17S FOG
$$

ILZ067-068-072-073-078-083-087-091-060600-
SOUTHEAST ILLINOIS

CITY           SKY/WX    TMP DP  RH WIND       PRES   REMARKS
LAWRENCEVILLE  CLEAR     64  55  72 S7        30.18S
FLORA*         CLEAR     68  55  63 CALM      30.18R
FAIRFIELD*     CLEAR     65  57  75 CALM      30.17R
HARRISBURG*    CLEAR     65  57  75 CALM      30.19R
ROBINSON*      CLEAR     64  54  69 SW5       30.18S
CARMI*         CLEAR     62  52  71 CALM      30.18R
$$

ABBREVIATIONS USED IN REMARKS
   TC - TEMPERATURE IN CELSIUS
  WCI - WIND CHILL INDEX
   HX - HEAT INDEX
  VSB - VISIBILITY
$$




USA.gov is the U.S. government's official web portal to all federal, state and local government web resources and services.